Location: Dittelbrunn
(50.0738°N, 10.2196°E)
Time: 22:14:27
(UTC+00:00)

Cosmos 1833 Rocket - Pass Details

Date: 18 September 2020
Orbit: 831 x 841 km, 71.0° (Epoch: 20 October)

Event Time Altitude Azimuth Distance (km) Brightness Sun altitude
Rises 19:59:21 0° 332° (NNW) 3,408 6.9 -24.0°
Reaches altitude 10° 20:01:53 10° 338° (NNW) 2,470 5.9 -24.3°
Maximum altitude 20:07:24 50° 53° (NE) 1,068 3.0 -25.0°
Enters shadow 20:07:46 49° 67° (ENE) 1,078 3.0 -25.1°
